Dewpoint
50 51 51 51 52 50 49 50 50 50 51 50 49 48 48 48 48 48 48 49 49 49 49 50 50 51 51 51 51 52 53 48 45 39 36 28 46 55 54 58 55 59 57 36 29 26 23 19 17 18 17 12 13 14 19 18 14 13 13 9 10 5 2 -2 -3 2 10 9 9 10 12 10 14 31 38 35 28 32 42 44 52 50 51 56 57 59 61 63
51 51 51 50 50 50 50 50 50 50 50 49 49 49 48 48 48 48 48 49 49 49 50 50 51 51 51 52 52 53 51 47 43 41 36 46 56 55 59 61 57 59 52 30 27 24 18 15 15 14 15 9 16 11 17 14 15 8 9 11 6 3 -1 6 5 9 9 9 11 10 11 10 14 21 37 31 26 33 43 46 50 50 53 57 58 59 60 65
49 50 51 50 50 51 51 51 50 50 51 51 50 50 49 49 48 49 50 49 49 50 50 50 51 51 51 51 52 54 49 45 41 37 34 57 56 56 60 61 56 58 34 28 24 20 13 12 12 12 12 9 9 8 13 13 12 7 12 6 2 4 7 10 9 8 10 11 11 10 10 9 28 31 39 33 34 41 38 44 46 50 53 54 58 59 60 64
51 51 50 51 51 51 52 52 52 52 52 52 51 51 50 50 49 49 49 49 50 50 50 51 51 51 51 52 54 51 47 43 33 29 39 61 57 58 60 59 58 53 37 29 21 15 14 13 12 11 11 9 9 10 7 10 9 10 6 3 1 8 5 3 11 9 10 10 10 10 10 10 30 29 35 37 35 37 34 40 45 47 52 56 58 58 61 63
50 50 51 51 51 52 52 52 52 52 52 52 52 52 51 51 51 50 50 50 50 51 51 51 51 51 51 53 54 50 47 38 26 33 56 61 60 57 61 60 60 39 28 23 18 17 14 13 12 10 9 6 10 6 5 9 7 11 6 2 5 7 4 4 6 8 8 9 9 10 9 8 12 29 35 37 33 30 34 43 47 47 52 56 58 58 59 60
51 51 52 52 52 52 52 52 52 52 52 52 52 52 52 52 52 52 51 50 50 51 51 51 51 51 52 54 50 49 43 16 29 37 64 62 59 58 61 60 58 38 25 21 19 15 13 12 10 7 7 7 6 4 7 8 9 3 4 4 6 6 6 8 7 8 9 9 9 8 9 10 10 19 34 37 35 36 41 47 48 51 54 56 58 58 60 59
51 51 52 51 51 51 52 52 52 52 52 52 53 53 53 53 53 52 51 51 50 50 51 51 51 51 52 53 50 47 39 23 31 48 60 59 58 59 59 59 53 27 25 23 17 12 11 9 8 4 6 4 7 4 8 6 8 5 3 7 6 5 6 7 6 7 8 9 8 8 10 9 13 18 32 36 37 32 39 44 53 56 55 57 58 60 59 59
50 51 51 51 51 52 52 52 52 52 52 52 52 53 53 52 52 52 52 50 50 50 51 51 51 51 53 47 46 40 27 21 33 54 60 58 54 55 55 39 32 25 25 22 17 11 9 8 6 5 3 -3 3 4 6 3 5 4 1 1 2 6 8 7 8 8 9 9 9 9 8 9 11 15 29 34 36 35 39 45 53 56 56 57 59 58 60 60
50 50 51 51 51 52 51 51 51 52 52 52 52 52 53 52 52 52 52 51 51 50 51 51 51 53 53 47 42 30 20 30 38 49 49 47 42 45 40 32 27 27 25 23 18 10 12 11 14 9 5 5 7 4 8 4 5 3 1 5 6 7 9 8 9 9 9 9 10 9 13 12 13 22 22 33 37 38 42 48 52 55 56 57 58 59 60 61
50 51 51 51 51 51 51 51 52 52 51 51 52 52 52 52 52 52 51 51 50 50 51 51 51 53 50 46 41 29 25 36 47 49 45 44 40 36 33 30 30 28 25 22 17 14 16 15 20 17 15 12 15 11 12 7 8 8 7 8 9 9 9 9 8 11 11 9 12 15 13 10 13 19 21 30 39 43 44 47 52 53 56 57 57 59 60 60
50 50 50 50 51 51 51 51 51 51 51 51 51 51 52 52 52 51 51 51 51 50 50 51 52 51 46 41 31 20 30 30 41 43 45 37 34 31 29 30 29 27 25 21 17 15 21 21 21 19 17 12 11 12 13 9 11 11 11 10 12 9 8 8 9 10 8 10 11 12 8 10 13 14 17 30 39 43 45 48 51 53 55 57 57 58 59 60
49 50 50 50 50 51 51 51 51 51 51 51 51 52 52 52 51 51 51 51 52 50 50 51 51 49 45 38 27 25 32 31 35 38 40 31 28 28 28 28 30 29 25 17 16 17 22 22 21 20 15 15 11 12 11 13 12 12 11 8 6 6 7 9 8 9 12 8 11 13 7 7 9 10 23 31 37 42 43 47 50 51 55 56 58 58 59 58
49 49 50 50 50 51 51 51 51 51 51 51 52 52 52 51 51 51 52 51 50 50 50 50 51 48 46 43 24 25 30 35 34 32 33 29 25 25 26 24 23 22 19 11 12 15 18 23 21 19 19 18 12 11 14 14 12 12 10 8 5 3 5 10 9 9 8 8 8 8 8 7 6 9 25 34 36 40 42 44 47 50 55 56 58 58 58 59
49 49 50 50 50 51 51 51 51 52 52 52 51 51 51 51 51 51 51 51 50 51 52 54 50 48 48 25 27 28 34 39 32 27 24 24 20 20 19 21 19 17 16 19 20 22 20 20 21 21 20 17 12 15 15 12 12 8 7 6 8 3 6 12 11 8 6 8 8 7 12 6 7 11 26 34 36 39 38 38 44 50 53 55 57 57 58 58
49 49 49 50 50 50 50 51 51 51 51 51 50 50 50 50 51 51 51 52 52 50 51 52 49 48 45 23 32 39 48 37 29 26 23 20 18 19 21 21 19 18 20 19 22 27 24 22 21 20 16 17 16 14 10 7 9 8 4 3 2 3 9 14 15 15 7 10 9 7 14 6 7 11 24 31 34 38 35 39 42 48 50 55 56 57 57 58
49 49 49 50 50 50 50 50 51 51 50 50 50 51 51 52 51 51 51 50 49 51 49 48 47 42 35 23 40 50 39 33 31 32 27 23 18 17 19 21 22 23 21 23 23 24 23 22 18 16 14 14 11 9 7 5 6 8 9 17 8 2 7 9 15 16 15 11 10 7 4 4 8 10 22 31 34 35 34 36 44 46 48 53 52 54 54 54
49 49 49 50 50 50 50 50 50 50 50 50 51 51 52 51 52 51 51 51 50 50 47 44 43 44 34 25 37 38 28 30 32 32 30 28 23 19 21 21 22 23 23 23 23 25 23 21 22 21 13 11 14 9 9 10 11 9 7 13 11 5 6 5 12 16 16 12 9 9 6 9 12 10 17 30 31 33 33 34 42 48 49 51 51 51 52 54
50 50 49 50 49 50 50 50 50 49 49 50 50 52 51 52 52 52 51 50 48 46 48 45 42 41 22 25 25 25 29 30 31 31 30 29 24 20 19 16 19 19 24 20 23 20 20 20 15 18 20 20 16 11 12 10 15 13 14 16 10 8 11 7 8 16 16 12 12 14 11 11 10 12 13 22 30 31 35 34 40 44 47 49 49 48 50 51
50 50 49 50 49 49 50 50 50 49 49 49 50 52 52 52 50 48 43 44 43 44 39 36 41 28 16 19 26 29 30 33 31 29 28 28 25 22 24 23 18 17 18 16 15 16 16 21 24 18 15 15 12 7 6 9 8 8 10 10 11 15 5 4 14 19 19 16 8 12 11 13 15 13 14 23 29 34 35 40 43 45 44 48 48 46 48 49
50 50 50 50 49 49 50 50 49 49 49 49 51 51 51 51 47 45 44 39 33 29 30 28 27 28 25 26 27 30 33 31 26 26 28 28 26 24 20 18 17 14 16 20 19 24 23 19 16 14 13 22 25 25 27 20 16 15 11 10 8 6 11 15 15 19 21 17 12 17 19 16 17 18 19 22 30 34 37 39 42 40 41 42 44 48 48 52
50 50 50 49 49 50 50 50 51 49 49 45 49 50 35 34 32 29 31 29 31 32 32 31 30 30 28 29 29 31 27 25 25 24 25 29 25 19 16 15 14 20 16 18 24 33 30 19 17 19 23 26 29 31 31 29 28 18 15 10 7 8 9 14 18 22 20 28 15 20 17 16 20 22 20 23 23 26 34 37 41 39 37 39 41 45 47 51
50 50 50 50 50 50 50 50 51 49 49 50 48 37 33 36 37 37 35 27 30 34 34 33 34 31 31 30 30 31 30 22 21 21 25 27 22 17 15 12 11 12 19 21 22 20 19 14 21 26 30 33 34 34 32 30 27 23 16 12 11 10 8 18 22 23 22 22 15 17 15 14 20 22 22 24 22 22 28 33 35 37 36 35 35 39 45 48
50 50 51 50 50 50 50 50 49 49 49 49 46 34 34 39 42 41 40 31 32 34 33 33 31 29 28 33 33 32 28 20 18 21 21 23 20 17 13 9 11 9 16 23 17 21 17 8 24 25 32 33 35 35 32 32 30 20 16 17 14 12 13 13 25 26 28 23 22 19 17 17 21 24 24 25 22 27 41 38 37 36 34 34 35 36 40 45
50 50 51 51 50 50 49 51 49 49 49 43 34 34 37 39 42 40 38 34 31 31 33 32 31 28 25 27 33 31 24 22 22 20 23 20 17 16 14 10 10 10 7 10 14 10 6 20 25 29 30 32 30 34 30 22 18 25 25 17 11 17 14 12 20 25 31 33 31 20 21 16 17 18 20 28 29 32 29 28 30 31 29 35 40 41 42 42
50 50 51 50 51 50 51 50 48 48 46 41 34 36 38 43 45 43 41 36 37 31 38 33 34 31 30 35 34 31 27 27 27 24 24 21 17 16 13 13 12 8 7 10 11 7 8 31 29 23 25 26 30 25 26 25 15 22 26 25 21 22 22 19 24 21 22 26 27 20 11 9 17 18 17 24 25 22 24 26 24 26 29 28 29 35 40 46
50 50 51 50 50 51 51 49 44 40 37 33 34 38 42 43 45 49 41 35 24 23 28 25 32 25 33 31 32 31 27 20 18 25 21 19 21 15 14 12 13 11 9 12 9 16 16 31 30 27 27 25 23 20 24 24 17 18 19 22 21 18 24 24 23 21 13 10 26 28 14 9 18 17 21 23 22 22 26 26 25 24 25 24 26 27 30 36
50 50 50 51 51 51 48 39 38 39 33 31 37 44 43 44 53 49 40 24 19 24 23 24 22 25 29 27 29 28 23 17 17 22 22 21 17 17 14 10 13 12 14 24 18 11 16 22 23 28 29 22 21 16 26 22 17 13 33 20 18 19 24 26 22 19 14 23 27 24 15 13 13 16 22 21 21 19 22 26 27 22 26 25 27 26 33 33
50 50 50 50 51 51 50 49 39 32 30 39 41 42 45 51 53 48 40 15 21 22 22 21 20 21 21 23 25 22 18 18 13 15 15 17 18 15 15 9 9 9 17 19 11 21 31 25 25 23 22 16 12 14 29 28 19 22 31 22 19 19 25 23 18 18 22 19 15 19 17 14 14 16 20 18 16 18 18 24 24 26 27 30 31 30 30 33
50 50 50 51 51 50 51 50 42 31 37 41 43 45 46 55 48 42 29 18 25 19 18 18 19 18 15 18 19 20 18 19 13 12 13 15 15 12 14 14 13 12 12 20 14 25 17 15 15 14 11 12 15 16 22 28 22 29 26 23 22 22 22 23 18 14 20 20 13 15 23 12 8 15 18 17 14 18 21 23 24 27 28 29 31 34 33 31
50 50 50 50 50 50 51 51 44 36 41 41 46 48 53 50 43 33 23 15 24 18 16 16 14 14 13 14 16 16 18 17 16 14 14 15 15 12 12 15 12 13 12 11 11 11 17 23 23 13 10 10 20 26 25 24 26 24 23 19 18 17 20 20 18 16 19 13 12 24 21 13 6 13 20 18 28 24 26 25 27 28 28 26 33 30 31 29
49 50 50 51 46 42 44 39 34 38 43 48 49 49 51 45 37 22 19 24 18 12 14 12 10 8 9 13 12 14 14 15 13 14 12 13 13 12 12 12 12 16 16 18 16 11 11 18 17 13 16 17 17 17 23 25 23 21 22 19 17 20 19 19 18 18 13 9 20 18 21 20 8 10 17 25 26 28 30 29 28 28 27 29 34 30 30 32
49 49 49 51 47 46 42 33 42 43 45 51 53 47 42 29 30 21 21 20 21 14 13 11 8 8 11 12 11 10 11 11 12 13 11 11 16 14 14 15 20 12 11 13 11 15 15 11 11 15 22 14 12 10 18 22 22 21 21 19 16 14 15 12 14 13 10 9 20 16 18 18 13 15 24 23 23 24 29 23 26 26 27 34 31 34 33 33
48 50 50 50 50 50 45 47 45 48 52 53 47 42 34 20 21 24 23 17 19 15 16 11 8 9 10 9 10 11 12 12 13 12 15 10 10 12 12 11 12 18 11 23 15 13 10 9 10 11 17 18 13 8 16 14 19 18 19 18 15 10 9 12 5 9 7 14 20 19 21 12 12 22 24 25 26 23 25 28 28 29 33 36 33 35 34 36
48 50 53 52 50 48 50 55 49 50 50 50 43 32 24 16 18 32 32 20 17 14 14 10 9 9 10 9 10 11 8 10 11 12 11 13 9 19 15 12 11 17 20 20 10 12 8 7 10 13 15 17 15 10 10 18 16 13 14 12 18 15 13 11 5 8 7 7 21 20 18 20 13 25 24 26 24 21 21 20 29 33 33 37 35 35 36 38
48 51 56 56 53 50 52 49 52 53 51 44 32 25 15 9 18 23 25 15 14 14 12 9 9 10 10 9 10 8 11 13 9 11 12 10 16 16 20 18 16 11 16 13 24 20 5 7 15 13 13 13 11 13 15 11 10 14 14 12 13 15 16 11 17 14 14 10 15 19 15 17 19 26 25 24 20 21 22 25 29 31 33 36 36 38 38 40
50 55 54 53 51 50 50 52 56 54 50 35 24 13 10 12 14 17 17 14 15 13 13 11 11 11 13 11 10 9 11 14 7 9 14 13 16 17 16 17 21 18 19 13 20 11 9 8 14 14 15 13 13 15 14 12 11 20 11 15 12 17 14 15 23 31 22 14 11 12 19 17 24 20 21 20 18 19 21 22 25 28 31 37 37 37 38 40
46 54 52 48 39 36 52 52 48 52 42 32 19 9 17 20 17 19 21 14 13 13 14 15 17 12 16 13 13 8 10 10 8 6 12 11 18 17 17 18 18 20 20 22 21 15 18 10 14 12 11 14 17 14 14 13 12 13 12 12 15 15 19 20 12 17 13 10 11 13 18 11 12 14 18 18 18 18 19 20 23 32 32 32 35 38 39 39
50 49 49 36 35 38 52 50 52 47 37 29 16 30 23 17 19 16 15 14 13 14 15 16 22 12 14 15 11 8 13 9 12 9 8 5 16 19 19 18 17 19 19 20 20 24 17 11 7 12 12 15 15 15 13 13 14 11 11 15 12 12 13 15 16 12 10 11 8 10 11 12 6 14 16 17 19 20 20 21 23 25 29 32 35 37 39 41
51 45 36 35 34 38 51 52 52 41 35 25 21 20 21 17 15 14 14 15 15 15 15 15 18 15 14 15 13 11 11 14 10 10 9 11 12 24 19 21 17 17 19 18 20 25 25 16 11 15 13 15 14 12 11 13 14 15 15 12 13 17 17 15 15 14 12 10 12 14 9 12 11 15 20 19 21 22 21 22 23 25 30 34 36 37 37 41
41 29 28 40 36 46 53 54 41 36 30 18 16 20 27 20 15 13 14 16 15 16 19 18 15 20 15 16 12 15 11 10 9 10 6 17 8 20 21 21 20 18 17 20 16 19 20 27 13 13 16 15 11 14 12 10 17 16 14 13 15 22 21 17 21 13 12 11 10 10 10 11 16 18 19 19 22 23 23 24 27 29 32 34 36 40 39 40
44 30 33 43 37 45 52 43 30 26 25 29 26 24 22 18 14 12 14 16 15 17 17 18 19 17 20 17 15 13 13 11 9 8 6 7 4 15 24 24 26 19 17 15 16 24 17 20 15 14 13 14 13 18 18 17 17 17 16 14 12 15 13 11 12 13 16 10 11 10 11 14 29 30 23 20 25 25 22 24 28 28 32 37 39 41 41 39
29 15 30 42 44 46 40 27 28 36 30 24 25 24 22 26 16 13 12 12 14 12 16 19 18 18 19 16 16 13 12 10 8 7 7 4 8 6 24 26 27 26 19 17 19 34 29 23 18 13 11 9 15 18 21 19 20 18 18 15 12 19 17 14 11 13 15 13 12 13 12 13 30 30 25 27 27 22 25 25 28 30 34 36 37 37 39 40
22 20 36 37 45 39 32 24 31 28 26 25 22 20 18 17 16 15 14 12 12 13 17 16 20 19 19 17 15 11 10 14 10 6 9 7 16 22 24 27 31 28 22 21 19 29 34 23 16 10 9 6 13 17 20 20 19 17 19 21 19 18 20 18 18 17 17 17 14 14 12 17 29 31 31 30 30 27 27 28 29 31 35 36 36 38 38 39
27 32 30 31 44 37 28 22 19 20 25 26 26 22 19 17 17 17 16 16 16 18 20 21 15 13 21 15 17 12 11 17 12 8 10 14 18 23 24 26 29 26 20 27 22 33 18 23 19 10 8 10 12 16 13 17 16 19 17 22 19 17 20 25 24 25 17 18 15 11 11 11 32 30 24 24 23 23 24 30 31 32 36 35 35 36 37 39
32 37 35 30 37 38 24 29 26 21 27 29 27 24 22 19 22 23 23 18 17 18 22 20 19 17 14 14 15 15 13 9 19 15 16 15 18 22 23 24 27 27 28 30 39 25 18 20 19 13 8 7 8 7 8 11 15 15 22 21 21 16 25 24 18 19 16 20 18 16 14 24 29 27 24 24 23 24 25 28 33 31 34 33 34 37 39 37
26 21 30 27 31 33 33 36 33 29 27 30 28 30 24 23 22 20 19 19 18 21 20 18 17 18 15 16 19 15 12 18 12 20 12 15 18 19 22 23 26 28 35 35 34 28 23 26 24 19 14 10 12 6 23 18 17 15 16 16 20 20 19 24 22 17 15 18 18 20 20 21 26 23 22 23 24 23 26 29 28 31 36 38 39 37 36 36
34 30 30 25 30 28 28 28 27 28 25 33 24 32 28 27 23 19 18 24 18 20 21 22 18 21 25 19 24 21 18 17 15 18 19 17 17 19 19 22 21 27 35 30 29 25 25 21 23 26 22 16 15 14 16 19 16 13 14 18 16 20 24 23 17 15 21 17 13 19 23 22 20 20 22 24 24 25 27 28 28 29 33 34 35 38 37 33
30 33 36 37 32 25 26 26 26 26 25 27 31 31 28 26 24 27 18 18 18 22 25 20 18 16 19 22 26 24 24 21 24 23 25 23 17 17 15 20 20 22 25 20 24 26 25 19 23 26 20 16 15 16 15 16 15 16 16 19 22 21 24 24 24 21 23 17 15 20 22 23 19 17 22 21 26 27 26 28 29 33 33 35 35 32 31 32
34 33 33 38 32 30 30 29 32 25 25 27 27 28 29 27 26 21 24 24 18 24 18 24 25 17 17 18 21 21 27 22 24 30 28 26 25 24 22 19 18 18 18 24 22 29 24 18 20 15 16 14 12 14 16 16 16 16 19 19 20 23 24 25 26 24 22 23 23 22 22 24 21 21 19 22 24 25 25 28 32 33 34 33 31 31 30 30
32 34 32 35 32 29 32 32 31 27 27 31 25 30 23 27 27 21 20 24 26 26 20 24 18 18 18 17 21 23 33 33 31 24 31 28 27 25 24 25 19 21 17 21 20 31 20 16 29 22 19 16 15 14 14 14 18 18 15 16 17 20 21 24 25 26 25 25 26 25 27 27 23 23 21 29 31 27 29 32 33 33 31 32 31 31 30 27
36 38 39 35 26 28 30 28 27 27 23 28 27 28 26 24 26 21 21 20 25 28 26 28 23 22 19 20 27 26 25 29 30 29 28 28 24 23 24 26 16 24 18 21 26 29 26 18 22 21 16 16 13 11 10 11 9 10 14 17 18 19 22 25 23 27 26 25 25 24 23 22 22 23 23 26 30 26 24 28 31 33 32 32 31 30 28 27
38 39 40 37 27 30 25 27 27 26 24 29 29 27 25 23 22 22 25 20 19 20 23 24 28 25 25 27 28 26 25 24 25 23 22 21 21 18 17 17 16 20 22 24 26 19 21 20 17 15 13 15 11 9 9 13 15 10 16 18 18 21 20 21 22 25 26 27 25 22 21 27 27 27 24 23 26 24 23 25 31 34 32 30 30 30 27 27